QPF
0.00 0.00 0.00 0.00 0.00 0.00 0.00 0.00 0.00 0.00 0.00 0.00 0.00 0.00 0.00 0.00 0.00 0.00 0.00 0.00 0.00 0.00 0.00 0.00 0.00 0.00 0.00
0.00 0.00 0.00 0.00 0.00 0.00 0.00 0.00 0.00 0.00 0.00 0.00 0.00 0.00 0.00 0.00 0.00 0.00 0.00 0.00 0.00 0.00 0.00 0.00 0.00 0.00 0.00
0.00 0.00 0.00 0.00 0.00 0.00 0.00 0.00 0.00 0.00 0.00 0.00 0.00 0.00 0.00 0.00 0.00 0.00 0.00 0.00 0.00 0.00 0.00 0.00 0.00 0.00 0.00
0.00 0.00 0.00 0.00 0.00 0.00 0.00 0.00 0.00 0.00 0.00 0.00 0.00 0.00 0.00 0.00 0.00 0.00 0.00 0.00 0.00 0.00 0.00 0.00 0.00 0.00 0.00
0.00 0.00 0.00 0.00 0.00 0.00 0.00 0.00 0.00 0.00 0.00 0.00 0.00 0.00 0.00 0.00 0.00 0.00 0.00 0.00 0.00 0.00 0.00 0.00 0.00 0.00 0.00
0.00 0.00 0.00 0.00 0.00 0.00 0.00 0.00 0.00 0.00 0.00 0.00 0.00 0.00 0.00 0.00 0.00 0.00 0.00 0.00 0.00 0.00 0.00 0.00 0.00 0.00 0.00
0.00 0.00 0.00 0.00 0.00 0.00 0.00 0.00 0.00 0.00 0.00 0.00 0.00 0.00 0.00 0.00 0.00 0.00 0.00 0.00 0.00 0.00 0.00 0.00 0.00 0.00 0.00
0.00 0.00 0.00 0.00 0.00 0.00 0.00 0.00 0.00 0.00 0.00 0.00 0.00 0.00 0.00 0.00 0.00 0.00 0.00 0.00 0.00 0.00 0.00 0.00 0.00 0.00 0.00
0.00 0.00 0.00 0.00 0.00 0.00 0.00 0.00 0.00 0.00 0.00 0.00 0.00 0.00 0.00 0.00 0.00 0.00 0.00 0.00 0.00 0.00 0.00 0.00 0.00 0.00 0.00
0.00 0.00 0.00 0.00 0.00 0.00 0.00 0.00 0.00 0.00 0.00 0.00 0.00 0.00 0.00 0.00 0.00 0.00 0.00 0.00 0.00 0.00 0.00 0.00 0.00 0.00 0.00
0.00 0.00 0.00 0.00 0.00 0.00 0.00 0.00 0.00 0.00 0.00 0.00 0.00 0.00 0.00 0.00 0.00 0.00 0.00 0.00 0.00 0.00 0.00 0.00 0.00 0.00 0.00
0.00 0.00 0.00 0.00 0.00 0.00 0.00 0.00 0.00 0.00 0.00 0.00 0.00 0.00 0.00 0.00 0.00 0.00 0.00 0.00 0.00 0.00 0.00 0.00 0.00 0.00 0.00
0.00 0.00 0.00 0.00 0.00 0.00 0.00 0.00 0.00 0.00 0.00 0.00 0.00 0.00 0.00 0.00 0.00 0.00 0.00 0.00 0.00 0.00 0.00 0.00 0.00 0.00 0.00
0.00 0.00 0.00 0.00 0.00 0.00 0.00 0.00 0.00 0.00 0.00 0.00 0.00 0.00 0.00 0.00 0.00 0.00 0.00 0.00 0.00 0.00 0.00 0.00 0.00 0.00 0.00
0.00 0.00 0.00 0.00 0.00 0.00 0.00 0.00 0.00 0.00 0.00 0.00 0.00 0.00 0.00 0.00 0.00 0.00 0.00 0.00 0.00 0.00 0.00 0.00 0.00 0.00 0.00
0.00 0.00 0.00 0.00 0.00 0.00 0.00 0.00 0.00 0.00 0.00 0.00 0.00 0.00 0.00 0.00 0.00 0.00 0.00 0.00 0.00 0.00 0.00 0.00 0.00 0.00 0.00
0.00 0.00 0.00 0.00 0.00 0.00 0.00 0.00 0.00 0.00 0.00 0.00 0.00 0.00 0.00 0.00 0.00 0.00 0.00 0.00 0.00 0.00 0.00 0.00 0.00 0.00 0.00
MSLP
1025.72 1026.02 1026.15 1025.93 1026.27 1026.12 1025.98 1026.24 1026.16 1026.44 1027.40 1027.95 1028.74 1029.53 1030.31 1030.59 1031.26 1030.83 1031.36 1031.62 1031.64 1031.87 1032.29 1032.80 1032.78 1033.03 1033.26
1026.10 1026.21 1026.85 1027.12 1027.25 1027.62 1026.81 1027.13 1027.27 1027.02 1027.56 1028.35 1029.04 1029.59 1030.18 1030.91 1031.40 1030.69 1031.22 1031.81 1032.07 1032.27 1032.28 1032.86 1032.97 1032.99 1033.01
1026.11 1026.65 1026.83 1027.76 1028.16 1028.77 1028.45 1028.13 1028.26 1027.98 1028.15 1028.76 1029.42 1029.87 1030.32 1030.62 1030.91 1030.90 1030.95 1032.00 1032.21 1032.49 1032.72 1032.93 1033.11 1033.10 1033.21
1026.31 1026.98 1027.00 1027.50 1028.18 1029.01 1029.58 1029.57 1029.44 1029.30 1029.23 1029.39 1029.64 1029.81 1030.11 1030.34 1030.54 1031.05 1031.19 1031.94 1032.09 1032.17 1032.64 1032.94 1032.94 1033.10 1033.36
1026.77 1027.30 1027.32 1027.76 1027.91 1028.39 1029.20 1029.79 1029.98 1030.21 1029.89 1030.22 1030.08 1030.06 1030.10 1030.34 1030.62 1030.77 1031.26 1031.53 1031.79 1032.07 1032.31 1032.64 1032.83 1033.15 1033.28
1026.98 1027.35 1027.25 1027.75 1028.21 1028.54 1028.64 1029.09 1029.81 1029.94 1030.27 1030.23 1030.22 1030.33 1030.32 1030.71 1030.54 1030.64 1031.04 1031.43 1031.65 1031.94 1032.03 1032.48 1032.78 1032.93 1033.06
1026.79 1027.14 1027.32 1027.54 1028.09 1028.61 1029.02 1029.14 1028.81 1029.16 1029.30 1029.87 1030.19 1030.34 1030.55 1030.59 1030.61 1030.49 1030.75 1031.32 1031.64 1031.71 1032.00 1032.16 1032.46 1032.49 1032.90
1026.83 1027.35 1027.49 1027.58 1027.79 1028.07 1028.63 1028.88 1029.23 1029.11 1029.21 1029.81 1030.23 1029.91 1030.11 1030.41 1030.30 1030.43 1030.67 1030.97 1031.12 1031.33 1031.48 1031.90 1031.95 1032.24 1032.35
1026.82 1026.77 1026.92 1026.93 1027.36 1027.70 1028.35 1028.69 1028.90 1029.09 1029.02 1029.34 1030.03 1029.94 1030.34 1030.56 1030.54 1030.30 1030.50 1030.70 1030.88 1030.98 1031.05 1031.38 1031.49 1031.66 1031.79
1027.21 1027.20 1027.11 1027.02 1027.17 1027.94 1028.24 1028.44 1028.41 1028.86 1028.94 1029.14 1029.46 1029.78 1030.46 1030.58 1030.54 1030.60 1030.58 1030.48 1030.66 1030.69 1030.72 1030.93 1030.92 1031.16 1031.63
1027.47 1027.48 1027.47 1027.70 1027.56 1027.45 1027.46 1027.88 1028.37 1028.53 1028.49 1028.86 1029.36 1029.73 1030.08 1030.45 1030.24 1030.22 1030.39 1030.62 1030.89 1030.77 1030.59 1030.75 1030.96 1030.94 1031.38
1027.66 1027.67 1027.65 1027.69 1027.50 1027.78 1027.71 1027.72 1027.98 1028.27 1028.42 1028.60 1029.19 1029.25 1029.52 1029.93 1030.12 1030.11 1030.29 1030.37 1030.56 1030.72 1030.85 1030.75 1030.69 1030.63 1030.41
1028.07 1027.93 1027.71 1027.62 1027.48 1027.80 1027.88 1027.90 1028.14 1028.24 1028.25 1028.15 1028.42 1028.71 1029.01 1029.25 1029.46 1029.72 1030.02 1030.20 1030.19 1030.32 1030.43 1030.30 1030.20 1030.29 1030.46
1028.63 1028.36 1028.01 1027.76 1027.66 1027.62 1027.79 1027.94 1028.07 1028.16 1028.21 1028.21 1028.32 1028.39 1028.69 1028.92 1029.12 1029.42 1029.79 1029.98 1029.73 1029.84 1029.87 1029.82 1029.70 1029.65 1029.70
1028.95 1028.73 1028.52 1028.30 1028.07 1027.98 1027.88 1027.82 1027.91 1027.91 1027.98 1027.91 1027.88 1028.04 1028.18 1028.44 1028.64 1028.92 1029.09 1029.07 1029.09 1029.30 1029.49 1029.30 1029.22 1029.28 1029.12
1029.17 1028.96 1028.80 1028.64 1028.47 1028.36 1028.29 1028.26 1028.25 1028.21 1028.15 1028.27 1028.22 1028.34 1028.53 1028.54 1028.46 1028.37 1028.58 1028.72 1028.75 1028.78 1028.67 1028.80 1028.63 1028.65 1028.45
1029.41 1029.28 1029.08 1028.88 1028.46 1028.47 1028.47 1028.46 1028.32 1028.39 1028.32 1028.29 1028.38 1028.51 1028.57 1028.39 1028.36 1027.88 1028.24 1028.34 1028.49 1028.59 1028.51 1028.56 1028.44 1028.24 1027.99
Thickness
5497 5499 5499 5503 5505 5508 5509 5508 5509 5510 5507 5504 5501 5499 5494 5496 5492 5501 5501 5501 5502 5503 5503 5500 5501 5501 5500
5481 5484 5480 5482 5485 5483 5490 5489 5491 5494 5493 5489 5485 5486 5484 5481 5479 5489 5488 5485 5484 5486 5487 5486 5485 5485 5485
5464 5465 5467 5462 5463 5461 5465 5469 5470 5472 5475 5472 5469 5469 5469 5470 5471 5474 5475 5470 5471 5470 5469 5470 5469 5471 5471
5444 5445 5449 5448 5445 5442 5441 5442 5446 5449 5452 5452 5451 5452 5453 5454 5458 5456 5458 5454 5454 5455 5453 5452 5454 5456 5455
5421 5422 5428 5428 5431 5429 5426 5423 5424 5425 5431 5431 5434 5435 5437 5437 5438 5439 5437 5437 5438 5438 5438 5438 5438 5438 5439
5402 5403 5409 5408 5407 5408 5411 5410 5410 5413 5409 5413 5415 5418 5419 5418 5419 5419 5418 5419 5420 5420 5422 5419 5419 5420 5421
5383 5385 5388 5389 5389 5387 5387 5391 5400 5397 5396 5397 5398 5398 5398 5399 5400 5403 5404 5401 5401 5402 5402 5402 5402 5404 5403
5363 5363 5365 5368 5368 5370 5369 5371 5374 5376 5376 5377 5375 5381 5379 5379 5383 5385 5384 5383 5383 5383 5384 5382 5384 5384 5385
5339 5342 5345 5347 5349 5351 5348 5349 5351 5354 5355 5357 5354 5356 5354 5356 5359 5363 5362 5361 5360 5362 5365 5364 5364 5365 5367
5316 5318 5323 5325 5326 5326 5326 5328 5332 5332 5335 5337 5337 5335 5332 5334 5336 5337 5340 5340 5340 5342 5343 5343 5344 5344 5346
5296 5297 5300 5299 5302 5305 5308 5308 5308 5311 5311 5310 5312 5310 5310 5312 5315 5317 5317 5317 5317 5318 5319 5319 5319 5320 5322
5277 5279 5281 5282 5284 5283 5284 5285 5286 5287 5286 5288 5289 5289 5288 5288 5291 5291 5291 5292 5291 5293 5293 5293 5295 5296 5298
5254 5257 5260 5262 5264 5263 5264 5266 5265 5265 5265 5267 5268 5268 5266 5268 5269 5269 5266 5266 5265 5267 5267 5269 5272 5272 5274
5227 5231 5234 5236 5238 5239 5241 5241 5242 5244 5242 5243 5242 5242 5241 5242 5243 5245 5242 5241 5244 5242 5240 5242 5248 5251 5251
5195 5199 5203 5205 5207 5208 5210 5213 5214 5216 5216 5217 5217 5217 5217 5218 5220 5220 5219 5222 5222 5219 5215 5219 5223 5226 5227
5162 5164 5167 5170 5173 5176 5177 5178 5179 5182 5183 5182 5181 5182 5184 5188 5192 5195 5193 5193 5194 5195 5195 5196 5201 5201 5203
5134 5134 5135 5137 5142 5144 5144 5146 5149 5149 5150 5150 5149 5148 5148 5156 5161 5162 5161 5163 5165 5165 5166 5166 5172 5179 5178